Location: Unspecified
(0.0000°N, 0.0000°E)
Time: 22:38:18
(UTC+02:00)

GPS 2-12 Rocket1 - Visible Passes

Search period start: 25 October 2014 00:00
Search period end: 03 November 2014 23:00
Orbit: 591 x 660 km, 20.0° (Epoch: 24 October)

Date Brightness Start Highest point End Pass type
(mag) Time Alt. Az. Time Alt. Az. Time Alt. Az.
25 Oct 5.1 06:40:30 11° NNW 06:43:27 18° NNE 06:46:41 10° ENE visible
25 Oct 3.0 20:31:59 10° WSW 20:36:34 73° SSE 20:39:31 21° ENE visible
25 Oct 6.0 22:16:11 10° W 22:16:39 12° W 22:16:39 12° W visible
26 Oct 4.5 05:57:35 10° NW 06:01:36 29° NNE 06:05:41 10° E visible
26 Oct 3.2 19:50:04 10° WSW 19:54:36 61° NNW 19:56:32 32° NE visible
27 Oct 5.5 04:37:23 14° NE 04:37:23 14° NE 04:38:48 10° ENE visible
27 Oct 3.7 06:15:11 10° NW 06:19:39 50° NNE 06:24:14 10° E visible
27 Oct 4.0 20:08:29 10° W 20:12:39 34° NNW 20:13:33 31° N visible
28 Oct 4.6 04:54:23 26° NNE 04:54:23 26° NNE 04:57:53 10° ENE visible
28 Oct 4.9 20:27:18 10° WNW 20:30:33 21° NNW 20:30:33 21° NNW visible
29 Oct 3.6 05:11:24 42° N 05:12:04 45° NNE 05:16:30 10° E visible
29 Oct 4.1 19:00:43 10° W 19:05:04 37° NNW 19:09:18 10° NE visible
29 Oct 5.6 20:46:44 10° NW 20:47:31 12° NW 20:47:31 12° NW visible
30 Oct 3.0 05:28:23 38° WNW 05:30:05 83° NNE 05:34:43 10° ESE visible
30 Oct 4.8 19:19:28 10° WNW 19:23:08 23° NNW 19:26:45 10° NNE visible
31 Oct 6.0 04:08:13 13° E 04:08:13 13° E 04:08:46 10° E visible
31 Oct 3.4 05:45:21 22° W 05:48:06 54° SSW 05:52:38 10° ESE visible
31 Oct 5.3 19:38:44 10° NW 19:41:18 15° NNW 19:43:49 10° NNE visible
01 Nov 5.2 04:25:10 24° ESE 04:25:10 24° ESE 04:27:02 10° ESE visible
01 Nov 4.3 06:02:18 11° W 06:06:09 31° SSW 06:10:15 10° SE visible
02 Nov 4.3 04:42:05 36° SE 04:42:05 36° SE 04:44:59 10° ESE visible
03 Nov 4.2 04:58:58 32° S 04:58:58 32° S 05:02:37 10° SE visible
